Starlink 30338

operational
NORAD ID: 57718 Int'l Des: 2023-129 Owner: SPXS Country: US Constellation: starlink
LEOCIRCULAR

About Starlink 30338

Description loading...

Live Position

Loading 3D Globe...

Upcoming Passes

Altitude History

Altitude vs Time

uPlot chart will show altitude changes over time

Two-Line Element Set

1 57718U 23129W 25350.30889435 .00001004 00000-0 89388-4 0 9995
2 57718 43.0027 213.2025 0001176 272.9991 87.0717 15.02533351128116
Epoch: Dec 16, 2025 • Age: 19 hours

Current Status

Altitude 561.7 km
Velocity 7.58 km/s
Sub-Earth Point -15.57°S, 68.77°E
Launch Date Aug 27, 2023
Age 2.3 years
Type internet

Technical Details

Classification Payload
Mass 730.00 kg
Dry Mass 700.00 kg
Total Mass 730.00 kg
Length 0.30 m
Diameter 4.10 m
Span 29.00 m
Shape Box + pan
Manufacturer SPXS
Bus Type Starlink V2M
Phase Status In Orbit
Owner/State SPXS/US

Large Constellations

Loading constellations...